FIN5LQ EFHK-ESSA

Flight info

Callsign FIN5LQ
Flight time 0h 43m
Altitude 36000
Route ADIVO Y365 POGOK DCT RUNGA N872 XILAN
Aircraft A319/M-SDE3FGHIRWY/LB1

Departure

Time 2026-05-07 17:07
Airport Helsinki Vantaa Airport (EFHK)

Arrival

Time 2026-05-07 17:51
Airport Stockholm-Arlanda Airport (ESSA)
Time Latitude Longitude Altitude Speed Heading
2026-05-07 17:04 60.33114 24.94738 182 ft 0 kts 271°
2026-05-07 17:05 60.33115 24.94712 183 ft 4 kts 272°
2026-05-07 17:05 60.33117 24.94630 185 ft 8 kts 274°
2026-05-07 17:06 60.33122 24.94504 190 ft 10 kts 274°
2026-05-07 17:06 60.33102 24.94358 200 ft 12 kts 231°
2026-05-07 17:06 60.33025 24.94192 191 ft 32 kts 227°
2026-05-07 17:06 60.32694 24.93466 180 ft 107 kts 227°
2026-05-07 17:07 60.32045 24.92035 182 ft 163 kts 229°
2026-05-07 17:07 60.31368 24.90445 697 ft 168 kts 230°
2026-05-07 17:07 60.30624 24.88586 1398 ft 173 kts 231°
2026-05-07 17:07 60.30136 24.86189 1819 ft 199 kts 264°
2026-05-07 17:08 60.30461 24.83318 2218 ft 226 kts 291°
2026-05-07 17:08 60.31135 24.80286 2852 ft 245 kts 292°
2026-05-07 17:08 60.31736 24.77059 3657 ft 254 kts 280°
2026-05-07 17:08 60.31791 24.73483 3926 ft 255 kts 269°
2026-05-07 17:09 60.31716 24.70058 4004 ft 254 kts 268°
2026-05-07 17:09 60.31614 24.66508 4007 ft 253 kts 268°
2026-05-07 17:09 60.31509 24.62994 4005 ft 252 kts 268°
2026-05-07 17:09 60.31408 24.59438 4005 ft 252 kts 268°
2026-05-07 17:10 60.31318 24.56096 4006 ft 252 kts 268°
2026-05-07 17:10 60.31227 24.52572 4007 ft 251 kts 269°
2026-05-07 17:10 60.31141 24.49077 4006 ft 252 kts 268°
2026-05-07 17:10 60.31052 24.45490 4524 ft 259 kts 269°
2026-05-07 17:11 60.30961 24.41984 5659 ft 258 kts 269°
2026-05-07 17:11 60.30865 24.38286 6676 ft 263 kts 269°
2026-05-07 17:11 60.30767 24.34573 7650 ft 266 kts 269°
2026-05-07 17:11 60.30605 24.30835 8657 ft 270 kts 263°
2026-05-07 17:12 60.30274 24.27091 9669 ft 273 kts 260°
2026-05-07 17:12 60.29890 24.23305 10489 ft 282 kts 259°
2026-05-07 17:12 60.29464 24.19277 10853 ft 305 kts 259°
2026-05-07 17:12 60.29009 24.15031 11560 ft 313 kts 259°
2026-05-07 17:13 60.28551 24.10733 12474 ft 314 kts 259°
2026-05-07 17:13 60.28099 24.06434 13432 ft 315 kts 259°
2026-05-07 17:13 60.27647 24.02114 14322 ft 315 kts 259°
2026-05-07 17:13 60.27195 23.97789 15137 ft 316 kts 259°
2026-05-07 17:14 60.26741 23.93453 15963 ft 317 kts 259°
2026-05-07 17:14 60.26283 23.89109 16778 ft 318 kts 259°
2026-05-07 17:14 60.25822 23.84750 17573 ft 319 kts 259°
2026-05-07 17:14 60.25359 23.80363 18373 ft 321 kts 259°
2026-05-07 17:15 60.24896 23.75962 19045 ft 322 kts 259°
2026-05-07 17:15 60.24428 23.71542 19718 ft 324 kts 259°
2026-05-07 17:15 60.23956 23.67102 20399 ft 325 kts 259°
2026-05-07 17:15 60.23478 23.62633 21060 ft 327 kts 258°
2026-05-07 17:16 60.22993 23.58140 21718 ft 330 kts 258°
2026-05-07 17:16 60.22505 23.53624 22375 ft 332 kts 258°
2026-05-07 17:16 60.22012 23.49076 23024 ft 334 kts 258°
2026-05-07 17:16 60.21515 23.44501 23640 ft 336 kts 258°
2026-05-07 17:17 60.21035 23.40083 24132 ft 338 kts 258°
2026-05-07 17:17 60.20527 23.35447 24619 ft 341 kts 258°
2026-05-07 17:17 60.20015 23.30773 25130 ft 343 kts 258°
2026-05-07 17:17 60.19499 23.26075 25625 ft 345 kts 258°
2026-05-07 17:18 60.18989 23.21451 26091 ft 347 kts 258°
2026-05-07 17:18 60.18454 23.16611 26461 ft 350 kts 258°
2026-05-07 17:18 60.17920 23.11804 26827 ft 355 kts 258°
2026-05-07 17:18 60.17377 23.06943 27239 ft 358 kts 258°
2026-05-07 17:19 60.16830 23.02042 27672 ft 361 kts 258°
2026-05-07 17:19 60.16273 22.97088 28113 ft 364 kts 258°
2026-05-07 17:19 60.15713 22.92145 28536 ft 366 kts 258°
2026-05-07 17:19 60.15144 22.87148 28953 ft 369 kts 258°
2026-05-07 17:20 60.14764 22.83812 29222 ft 371 kts 258°
2026-05-07 17:20 60.14185 22.78751 29624 ft 373 kts 258°
2026-05-07 17:20 60.13602 22.73660 30019 ft 376 kts 258°
2026-05-07 17:20 60.13016 22.68528 30356 ft 378 kts 258°
2026-05-07 17:21 60.12425 22.63380 30660 ft 381 kts 258°
2026-05-07 17:21 60.11823 22.58173 30946 ft 384 kts 258°
2026-05-07 17:21 60.11214 22.52940 31225 ft 387 kts 258°
2026-05-07 17:21 60.10597 22.47676 31524 ft 390 kts 258°
2026-05-07 17:22 60.09976 22.42361 31822 ft 391 kts 258°
2026-05-07 17:22 60.09353 22.37057 32210 ft 391 kts 258°
2026-05-07 17:22 60.08725 22.31743 32600 ft 391 kts 258°
2026-05-07 17:22 60.08095 22.26443 32965 ft 392 kts 258°
2026-05-07 17:23 60.07461 22.21127 33324 ft 392 kts 258°
2026-05-07 17:23 60.06828 22.15811 33683 ft 393 kts 258°
2026-05-07 17:23 60.06192 22.10492 34005 ft 393 kts 258°
2026-05-07 17:23 60.05553 22.05159 34310 ft 394 kts 258°
2026-05-07 17:24 60.04910 21.99821 34603 ft 395 kts 258°
2026-05-07 17:24 60.04263 21.94469 34884 ft 396 kts 258°
2026-05-07 17:24 60.03616 21.89119 35155 ft 397 kts 258°
2026-05-07 17:24 60.02963 21.83754 35421 ft 397 kts 257°
2026-05-07 17:25 60.02306 21.78386 35681 ft 398 kts 257°
2026-05-07 17:25 60.01643 21.73007 35939 ft 398 kts 257°
2026-05-07 17:25 60.00976 21.67629 36117 ft 399 kts 257°
2026-05-07 17:25 60.00309 21.62264 36138 ft 396 kts 257°
2026-05-07 17:26 59.98983 21.51594 36139 ft 398 kts 257°
2026-05-07 17:26 59.97638 21.40847 36138 ft 397 kts 257°
2026-05-07 17:27 59.96294 21.30175 36063 ft 399 kts 257°
2026-05-07 17:27 59.95609 21.24761 35120 ft 407 kts 257°
2026-05-07 17:27 59.94913 21.19289 34614 ft 403 kts 257°
2026-05-07 17:28 59.94227 21.13920 34118 ft 398 kts 258°
2026-05-07 17:28 59.93544 21.08589 33428 ft 396 kts 258°
2026-05-07 17:28 59.92860 21.03289 32756 ft 393 kts 258°
2026-05-07 17:28 59.92182 20.98083 32104 ft 390 kts 257°
2026-05-07 17:29 59.91503 20.92872 31461 ft 387 kts 257°
2026-05-07 17:29 59.90830 20.87710 30848 ft 383 kts 258°
2026-05-07 17:29 59.90162 20.82591 30234 ft 380 kts 258°
2026-05-07 17:29 59.89498 20.77526 29516 ft 376 kts 258°
2026-05-07 17:30 59.88840 20.72509 28817 ft 373 kts 258°
2026-05-07 17:30 59.88185 20.67534 28114 ft 370 kts 258°
2026-05-07 17:30 59.87534 20.62609 27440 ft 367 kts 258°
2026-05-07 17:30 59.86891 20.57780 26789 ft 364 kts 257°
2026-05-07 17:31 59.86243 20.52928 26141 ft 361 kts 257°
2026-05-07 17:31 59.85599 20.48118 25598 ft 356 kts 257°
2026-05-07 17:31 59.84972 20.43444 25352 ft 344 kts 257°
2026-05-07 17:31 59.84362 20.38912 25108 ft 334 kts 257°
2026-05-07 17:32 59.83768 20.34503 24859 ft 326 kts 257°
2026-05-07 17:32 59.83183 20.30177 24620 ft 323 kts 257°
2026-05-07 17:32 59.82600 20.25880 24380 ft 321 kts 257°
2026-05-07 17:32 59.82020 20.21610 24142 ft 320 kts 257°
2026-05-07 17:33 59.81442 20.17350 23904 ft 318 kts 257°
2026-05-07 17:33 59.80865 20.13113 23656 ft 317 kts 257°
2026-05-07 17:33 59.80289 20.08893 23382 ft 316 kts 257°
2026-05-07 17:33 59.79716 20.04706 23043 ft 317 kts 257°
2026-05-07 17:34 59.79134 20.00466 22764 ft 319 kts 257°
2026-05-07 17:34 59.78547 19.96220 22492 ft 318 kts 257°
2026-05-07 17:34 59.77959 19.91996 22219 ft 317 kts 257°
2026-05-07 17:34 59.77371 19.87776 21948 ft 317 kts 257°
2026-05-07 17:35 59.76785 19.83574 21684 ft 316 kts 257°
2026-05-07 17:35 59.76200 19.79380 21415 ft 315 kts 257°
2026-05-07 17:35 59.75616 19.75202 21151 ft 314 kts 257°
2026-05-07 17:35 59.75032 19.71035 20886 ft 313 kts 257°
2026-05-07 17:36 59.74452 19.66896 20637 ft 309 kts 257°
2026-05-07 17:36 59.73878 19.62834 20305 ft 303 kts 257°
2026-05-07 17:36 59.73310 19.58834 19923 ft 300 kts 257°
2026-05-07 17:36 59.72747 19.54881 19553 ft 296 kts 257°
2026-05-07 17:37 59.72190 19.50966 19183 ft 294 kts 257°
2026-05-07 17:37 59.71646 19.47143 18825 ft 291 kts 257°
2026-05-07 17:37 59.71090 19.43239 18451 ft 289 kts 257°
2026-05-07 17:37 59.70544 19.39424 18065 ft 287 kts 257°
2026-05-07 17:38 59.70000 19.35644 17710 ft 284 kts 257°
2026-05-07 17:38 59.69464 19.31912 17370 ft 280 kts 257°
2026-05-07 17:38 59.68932 19.28203 17027 ft 279 kts 257°
2026-05-07 17:38 59.68400 19.24517 16691 ft 278 kts 257°
2026-05-07 17:39 59.67864 19.20836 16356 ft 278 kts 257°
2026-05-07 17:39 59.67329 19.17169 16014 ft 277 kts 257°
2026-05-07 17:39 59.66796 19.13502 15686 ft 277 kts 257°
2026-05-07 17:39 59.66297 19.09804 15348 ft 285 kts 263°
2026-05-07 17:40 59.66235 19.05825 15022 ft 293 kts 273°
2026-05-07 17:40 59.66295 19.01773 14650 ft 295 kts 273°
2026-05-07 17:40 59.66360 18.97720 14263 ft 295 kts 273°
2026-05-07 17:40 59.66427 18.93647 13887 ft 296 kts 273°
2026-05-07 17:41 59.66491 18.89579 13475 ft 295 kts 273°
2026-05-07 17:41 59.66552 18.85525 13063 ft 294 kts 273°
2026-05-07 17:41 59.66610 18.81484 12664 ft 293 kts 273°
2026-05-07 17:41 59.66665 18.77466 12265 ft 292 kts 273°
2026-05-07 17:42 59.66716 18.73457 11871 ft 291 kts 273°
2026-05-07 17:42 59.66765 18.69471 11484 ft 289 kts 273°
2026-05-07 17:42 59.66901 18.65524 11090 ft 286 kts 284°
2026-05-07 17:42 59.67643 18.61906 10719 ft 284 kts 297°
2026-05-07 17:43 59.68551 18.58443 10292 ft 283 kts 298°
2026-05-07 17:43 59.69470 18.55010 9888 ft 281 kts 298°
2026-05-07 17:43 59.70366 18.51661 9629 ft 269 kts 298°
2026-05-07 17:43 59.71222 18.48455 9393 ft 258 kts 298°
2026-05-07 17:44 59.72047 18.45364 9144 ft 250 kts 298°
2026-05-07 17:44 59.72847 18.42359 8891 ft 244 kts 298°
2026-05-07 17:44 59.73633 18.39400 8664 ft 242 kts 298°
2026-05-07 17:44 59.74414 18.36452 8371 ft 242 kts 298°
2026-05-07 17:45 59.75194 18.33505 8027 ft 241 kts 298°
2026-05-07 17:45 59.75973 18.30554 7592 ft 243 kts 298°
2026-05-07 17:45 59.76765 18.27545 7042 ft 249 kts 298°
2026-05-07 17:45 59.77572 18.24472 6510 ft 251 kts 297°
2026-05-07 17:46 59.78304 18.21370 5943 ft 246 kts 285°
2026-05-07 17:46 59.78616 18.18056 5397 ft 243 kts 278°
2026-05-07 17:46 59.78844 18.14756 4849 ft 240 kts 278°
2026-05-07 17:46 59.79059 18.11495 4280 ft 238 kts 278°
2026-05-07 17:47 59.79261 18.08207 3572 ft 242 kts 275°
2026-05-07 17:47 59.79132 18.04898 2926 ft 241 kts 248°
2026-05-07 17:47 59.78285 18.02213 2787 ft 225 kts 224°
2026-05-07 17:47 59.77024 18.00500 2573 ft 218 kts 201°
2026-05-07 17:48 59.75583 17.99787 2298 ft 210 kts 189°
2026-05-07 17:48 59.74174 17.99274 2034 ft 202 kts 189°
2026-05-07 17:48 59.72825 17.98781 1810 ft 192 kts 189°
2026-05-07 17:48 59.71527 17.98307 1499 ft 182 kts 189°
2026-05-07 17:49 59.70343 17.97875 1257 ft 168 kts 189°
2026-05-07 17:49 59.69271 17.97482 1038 ft 146 kts 188°
2026-05-07 17:49 59.68301 17.97128 838 ft 136 kts 187°
2026-05-07 17:49 59.67379 17.96793 655 ft 133 kts 186°
2026-05-07 17:50 59.66469 17.96465 477 ft 132 kts 186°
2026-05-07 17:50 59.65583 17.96163 270 ft 132 kts 185°
2026-05-07 17:50 59.64688 17.95823 122 ft 131 kts 186°
2026-05-07 17:50 59.63914 17.95537 114 ft 97 kts 190°
2026-05-07 17:51 59.63408 17.95355 123 ft 56 kts 189°
2026-05-07 17:51 59.63098 17.95234 132 ft 38 kts 199°
2026-05-07 17:51 59.62901 17.94985 137 ft 23 kts 221°
2026-05-07 17:51 59.62865 17.94777 137 ft 17 kts 325°
2026-05-07 17:52 59.62986 17.94796 134 ft 19 kts 11°
2026-05-07 17:52 59.63121 17.94855 128 ft 20 kts
2026-05-07 17:52 59.63270 17.94900 125 ft 23 kts 11°
2026-05-07 17:52 59.63439 17.94958 120 ft 26 kts 11°
2026-05-07 17:53 59.63623 17.95022 112 ft 29 kts
2026-05-07 17:53 59.63825 17.95099 110 ft 30 kts 10°
2026-05-07 17:53 59.64032 17.95174 108 ft 24 kts 11°
2026-05-07 17:53 59.64204 17.95232 107 ft 26 kts
2026-05-07 17:54 59.64363 17.95099 103 ft 27 kts 309°
2026-05-07 17:54 59.64392 17.94747 102 ft 27 kts 252°
2026-05-07 17:54 59.64295 17.94434 103 ft 28 kts 237°
2026-05-07 17:54 59.64192 17.94108 106 ft 27 kts 238°
2026-05-07 17:55 59.64095 17.93809 111 ft 25 kts 236°
2026-05-07 17:55 59.64006 17.93526 112 ft 25 kts 242°
2026-05-07 17:55 59.64014 17.93199 111 ft 25 kts 300°
2026-05-07 17:55 59.64083 17.92928 111 ft 18 kts 292°
2026-05-07 17:56 59.64132 17.92740 112 ft 15 kts 301°
2026-05-07 17:56 59.64179 17.92569 114 ft 14 kts 298°
2026-05-07 17:56 59.64233 17.92475 115 ft 6 kts
2026-05-07 17:56 59.64269 17.92541 114 ft 9 kts 75°
2026-05-07 17:57 59.64255 17.92621 112 ft 10 kts 117°
2026-05-07 17:57 59.64219 17.92752 113 ft 12 kts 119°
2026-05-07 17:57 59.64187 17.92885 112 ft 8 kts 104°
2026-05-07 17:57 59.64225 17.92947 112 ft 8 kts 25°
2026-05-07 17:58 59.64276 17.92995 112 ft 9 kts 24°
2026-05-07 17:58 59.64299 17.93018 112 ft 2 kts 27°
2026-05-07 17:58 59.64301 17.93019 112 ft 0 kts 27°